Location: ??????
(38.1319°N, 23.8615°E)
Time: 03:59:41
(UTC+00:00)

Daily predictions for brighter satellites

Satellite Brightness Start Highest point End
(mag) Time Altitude Azimuth Time Altitude Azimuth Time Altitude Azimuth
Cosmos 2082 Rocket 4.5 01:05:03 20° NE 01:05:03 20° NE 01:06:56 10° NE
USA 234 3.6 01:31:09 10° NE 01:36:58 57° ESE 01:36:58 57° ESE
Cosmos 1980 Rocket 3.1 01:46:28 47° ENE 01:46:28 47° ENE 01:51:42 10° SE
CZ-2C R/B 4.3 01:41:40 10° NNE 01:43:41 24° NE 01:43:41 24° NE
FENGYUN 3A 4.3 01:50:24 10° NNE 01:55:37 53° E 01:55:37 53° E
CZ-4B R/B 4.3 01:57:38 10° NNE 02:01:28 48° NE 02:01:28 48° NE
ARIANE 5 R/B 4.5 01:57:56 10° N 01:59:19 19° N 01:59:19 19° N
ATLAS CENTAUR R/B 3.7 02:07:28 17° NNE 02:07:28 17° NNE 02:08:35 10° NNE
Lacrosse 5 rocket 3.2 02:09:23 28° NE 02:09:23 28° NE 02:11:30 10° NE
Lacrosse 5 4.4 02:13:30 11° N 02:15:40 13° NNE 02:18:04 10° NE
Cosmos 2278 4.0 02:16:51 22° NNW 02:20:34 67° ENE 02:26:14 10° SSE
PSLV R/B 4.4 02:23:19 10° NNE 02:27:36 50° E 02:30:25 20° S
SME Rocket 4.0 02:20:34 10° SSE 02:28:06 82° ENE 02:33:04 10° NNW
Cosmos 1295 Rocket 4.3 02:23:47 10° NNW 02:29:57 67° W 02:36:01 10° S
SL-16 R/B 3.8 02:31:04 10° N 02:36:09 33° ENE 02:41:12 10° ESE
DELTA 2 R/B (1) 3.9 02:36:53 47° SSW 02:36:53 47° SSW 02:42:05 10° SE
ALOS 2.6 02:39:37 10° N 02:43:16 46° NNW 02:43:16 46° NNW
NOSS 3-1 (C) 4.1 02:38:07 16° NW 02:44:38 76° WSW 02:53:36 10° SSE
Cosmos 2298 Rocket 4.2 02:45:28 48° SW 02:45:28 48° SW 02:49:51 10° S
Cosmos 2082 Rocket 3.3 02:46:57 28° NW 02:46:57 28° NW 02:50:49 10° N
Cosmos 2322 Rocket 3.8 02:47:21 10° N 02:52:27 33° ENE 02:57:32 10° ESE
FALCON 9 DEB 3.9 02:53:31 39° SE 02:53:31 39° SE 02:55:33 10° SE
Cosmos 1125 Rocket 3.6 02:55:22 40° WNW 02:56:36 48° WSW 03:01:34 10° S
Cosmos 773 Rocket 4.1 02:51:27 10° S 02:56:38 77° ESE 03:01:52 10° NNE
Cosmos 44 4.4 02:51:59 10° NNW 02:56:38 41° NE 03:00:58 10° SE
COSMOS 2455 2.8 02:54:01 33° SW 02:56:41 63° WNW 03:02:41 10° NNE
Cosmos 2181 Rocket 3.9 02:52:03 10° S 02:58:11 84° W 03:04:26 10° N
OAO 2 Rocket 3.8 02:57:08 35° SW 02:58:50 51° SSE 03:03:37 10° E
ATLAS 5 CENTAUR R/B 4.4 03:02:21 14° SW 03:02:21 14° SW 03:03:41 10° SSW
Meteor 1-21 4.1 02:55:42 10° SSW 03:01:23 79° W 03:07:03 10° N
Cosmos 1726 4.0 03:04:20 17° SSW 03:04:20 17° SSW 03:05:20 10° S
ATLAS 2A CENTAUR R/B 3.7 03:01:53 10° S 03:03:15 12° SSE 03:05:10 10° SSE
Cosmos 1707 2.6 03:02:54 23° SSW 03:05:10 65° W 03:09:03 10° N
METEOR-M 4.2 03:00:47 10° N 03:06:01 56° WNW 03:11:12 10° SSW
Cosmos 2360 Rocket 4.3 03:01:18 10° N 03:06:02 26° ENE 03:10:44 10° ESE
BREEZE-M DEB (TANK) 3.6 03:07:54 20° NNW 03:07:56 20° NNW 03:09:53 10° NE
SJ-6F 4.3 03:04:35 10° N 03:08:48 82° W 03:12:58 10° SSW
Cosmos 1378 Rocket 3.5 03:04:55 10° SSW 03:09:15 63° W 03:13:39 10° N
Okean 2 Rocket 3.5 03:08:10 10° NNW 03:12:24 40° W 03:16:36 10° SSW
USA 234 3.8 03:14:23 10° NE 03:20:24 41° NNW 03:24:19 21° W
GEOS 3 Rocket 3.5 03:16:16 10° NNE 03:21:24 79° NW 03:26:29 10° SW
CZ-4B R/B 4.4 03:19:48 10° NNE 03:23:23 55° E 03:27:03 10° S
Landsat 5 4.4 03:20:26 10° SE 03:24:07 45° ENE 03:27:54 10° N
CZ-2C R/B 4.0 03:21:06 10° NNW 03:23:03 16° NW 03:23:03 16° NW
Cosmos 1975 Rocket 4.2 03:20:13 10° SSE 03:24:25 46° E 03:28:40 10° NNE
SL-27 R/B 3.7 03:23:06 10° S 03:26:12 41° ESE 03:29:19 10° NNE
SL-4 R/B 4.4 03:25:12 10° NNW 03:27:47 15° N 03:30:16 10° NE
Cosmos 1980 Rocket 3.3 03:28:25 20° W 03:29:51 22° W 03:34:07 10° SSW
Cosmos 2218 Rocket 4.1 03:24:55 10° NNW 03:31:12 60° W 03:37:25 10° S
SL-8 Rocket 4.2 03:26:01 10° NNW 03:31:56 48° W 03:37:47 10° SSW
Cosmos 1470 3.7 03:33:12 10° NW 03:36:25 25° W 03:39:36 10° SW
H-2A R/B 2.6 03:33:21 10° N 03:37:10 81° WNW 03:40:54 10° SSW
Cosmos 389 Rocket 2.6 03:34:44 10° NNW 03:38:09 50° W 03:41:35 10° S
Cosmos 1484 Rocket 4.2 03:38:58 10° NNW 03:41:38 18° WNW 03:42:33 17° W
Cosmos 158 Rocket 4.1 03:36:38 10° SSW 03:41:49 79° ESE 03:46:53 10° NNE
APEX 4.4 03:35:29 10° SSW 03:42:05 88° WNW 03:47:41 10° NNE
USA 229 DEB 4.1 03:38:02 10° NW 03:45:19 55° WSW 03:52:55 10° S
USA 229 4.1 03:38:08 10° NW 03:45:25 55° WSW 03:53:01 10° SSE
Okean 1 Rocket 3.4 03:41:20 10° NNW 03:45:32 44° W 03:49:45 10° SSW
Lacrosse 5 rocket 3.3 03:45:01 12° WNW 03:46:56 16° NNW 03:49:40 10° N
Cosmos 371 Rocket 3.3 03:44:30 10° NNW 03:49:22 69° WSW 03:54:11 10° S
SKYMED 2 3.5 03:46:16 10° S 03:50:36 79° WSW 03:54:57 10° NNW
Cosmos 1833 4.2 03:45:30 10° SSW 03:51:10 89° E 03:56:50 10° NNE
Cosmos 1674 3.3 03:51:25 10° SW 03:54:46 32° WNW 03:58:08 10° NNW
COSMOS 2487 4.5 03:54:34 10° SSE 03:57:34 32° ESE 04:00:36 10° NE
Cosmos 1758 4.3 03:54:39 10° NNW 03:57:58 26° W 04:01:16 10° SSW
Lacrosse 5 2.9 03:54:56 10° NNW 03:59:49 45° NE 04:04:40 10° ESE
Cosmos 1184 Rocket 3.6 03:58:19 10° SW 04:01:07 28° WNW 04:03:55 10° NNW
Cosmos 1626 2.4 03:58:54 10° SSW 04:02:24 42° W 04:05:56 10° N
USA 305 4.1 04:01:47 10° SSW 04:05:44 44° SE 04:09:40 10° ENE
Cosmos 1953 2.4 04:02:37 10° NNW 04:06:35 55° W 04:10:30 10° S
CZ-4C R/B 3.1 04:05:21 10° S 04:08:51 59° W 04:12:24 10° NNW
H-2A R/B 3.1 04:05:02 10° SSE 04:09:07 49° ENE 04:13:09 10° N
H-2A ROCKET BODY 4.0 04:09:33 10° WSW 04:12:06 12° SW 04:13:53 10° SSW
Envisat 3.4 04:07:25 10° N 04:12:11 42° WNW 04:16:56 10° SW
Cosmos 1346 Rocket 3.8 04:09:21 10° SW 04:12:44 26° WNW 04:16:08 10° NNW
ISS -1.3 04:10:35 10° S 04:13:26 25° SE 04:16:16 10° ENE
